Location: Christian Reformed Church
(43.0975°N, 93.8113°W)
Time: 21:29:31
(UTC+00:00)

USA 290 - Visible Passes

Search period start: 16 March 2026 00:00
Search period end: 26 March 2026 00:00
Orbit: 396 x 415 km, 73.6° (Epoch: 30 October)

Date Brightness Start Highest point End Pass type
(mag) Time Alt. Az. Time Alt. Az. Time Alt. Az.
16 Mar 4.8 01:57:28 10° NNE 01:57:46 11° NNE 01:57:46 11° NNE visible
17 Mar 4.6 02:37:51 10° NNW 02:38:53 19° NNW 02:38:53 19° NNW visible
18 Mar 3.8 01:45:29 10° N 01:47:28 21° NE 01:47:28 21° NE visible
18 Mar 5.8 03:19:55 10° WNW 03:20:03 11° WNW 03:20:03 11° WNW visible
19 Mar 3.2 02:26:17 10° NNW 02:28:42 44° NW 02:28:42 44° NW visible
20 Mar 2.9 01:33:36 10° N 01:36:31 33° ENE 01:37:25 28° E visible
20 Mar 5.5 03:09:16 10° W 03:10:01 11° W 03:10:01 11° W visible
21 Mar 3.5 02:14:46 10° NW 02:17:44 37° WSW 02:18:49 27° SSW visible
22 Mar 2.3 01:21:44 10° NNW 01:24:52 53° ENE 01:27:45 11° SE visible
23 Mar 4.5 02:03:17 10° NW 02:05:54 24° WSW 02:08:31 10° SSW visible
24 Mar 2.1 01:09:54 10° NNW 01:13:05 87° ENE 01:16:14 10° SSE visible
25 Mar 5.2 01:51:55 10° WNW 01:53:58 16° W 01:55:59 10° SW visible
